Flag for Puerto Rico Weather past 2 weeks in San Juan, Puerto Rico

78 °F

Passing clouds.

Feels Like: 81 °F
Forecast: 78 / 85 °F
Wind: No wind

Location: Luis Munoz Marin

Current Time: Nov 29, 2015 at 10:49:36 PM

Latest Report: Nov 29, 2015 at 9:56 PM

Visibility: 10 mi

Pressure: 29.94 "Hg

Humidity: 82%

Dew point: 72 °F

Location of San JuanLocation

Historic Weather in San Juan — Graph


San Juan temperature yesterday

Maximum temperature yesterday: 84 °F (at 10:56 AM)
Minimum temperature yesterday: 75 °F (at 11:56 PM)
Average temperature yesterday: 78 °F

Past Weeks' High & Low Weather Summary

High89 °F (Nov 24, 1:56 PM)97% (Nov 29, 6:56 AM)30.08 "Hg (Nov 29, 6:56 AM)
Low72 °F (Nov 29, 3:56 AM)46% (Nov 24, 1:56 PM)29.84 "Hg (Nov 24, 2:56 PM)
Average80 °F77%29.94 "Hg
* Reported Nov 14 8:56 PM — Nov 29 8:56 PM, San Juan, Weather by CustomWeather, © 2015

Note: Actual official high and low records may vary slightly from our data, if they occured in-between our weather recording intervals... More about our weather records


San Juan weather history for previous 24 hours

Time TempWeatherWind HumidityBarometerVisibility
8:56 PM
Sun, Nov 29
79 °FPassing clouds.No wind79%29.95 "Hg10 mi
7:56 PM80 °FPassing clouds.No wind79%29.93 "Hg10 mi
6:56 PM80 °FPartly cloudy.No wind81%29.93 "Hg10 mi
5:56 PM79 °FBroken clouds.6 mph84%29.90 "Hg10 mi
4:56 PM82 °FBroken clouds.No wind74%29.89 "Hg10 mi
3:56 PM83 °FBroken clouds.5 mph74%29.88 "Hg10 mi
2:56 PM83 °FBroken clouds.7 mph72%29.87 "Hg10 mi
1:56 PM82 °FBroken clouds.6 mph79%29.87 "Hg10 mi
12:56 PM79 °FBroken clouds.No wind84%29.90 "Hg10 mi
11:56 AM77 °FMore clouds than sun.No wind90%29.93 "Hg10 mi
10:56 AM76 °FCloudy.No wind91%29.95 "Hg10 mi
9:56 AM75 °FLight rain. More clouds than sun.3 mph94%29.95 "Hg10 mi
8:56 AM74 °FLight rain. More clouds than sun.No wind91%29.97 "Hg10 mi
7:56 AM73 °FMore clouds than sun.No wind97%29.95 "Hg10 mi
6:56 AM72 °FPartly cloudy.No wind97%29.94 "Hg10 mi
5:56 AM72 °FLight rain. Passing clouds.5 mph91%29.93 "Hg10 mi
4:56 AM73 °FPassing clouds.3 mph94%29.93 "Hg10 mi
3:56 AM72 °FLight rain. Passing clouds.5 mph93%29.93 "Hg10 mi
1:56 AM73 °FLight rain. Passing clouds.7 mph94%29.93 "Hg10 mi
12:56 AM74 °FLight rain. Passing clouds.5 mph94%29.95 "Hg9 mi
11:56 PM
Sat, Nov 28
75 °FLight rain. Fog.10 mph94%29.96 "Hg6 mi
10:56 PM76 °FHeavy rain. Fog.13 mph91%29.97 "Hg2 mi
Weather by CustomWeather, © 2015

See weather overviewHow to use our weather pages